VOZ970 YBBN-YSSY

Flight info

Callsign VOZ970
Flight time 1h 15m
Altitude 36000
Route SANEG H91 IGDAM H652 BOREE
Aircraft B737/M-SDE2E3FGHIRWXY/LB1

Departure

Time 2026-04-22 09:40
Airport Brisbane International Airport (YBBN)

Arrival

Time 2026-04-22 10:56
Airport Sydney Kingsford Smith International Airport (YSSY)
Time Latitude Longitude Altitude Speed Heading
2026-04-22 09:07 -27.38687 153.12012 21 ft 0 kts 307°
2026-04-22 09:27 -27.38689 153.12015 20 ft 2 kts 307°
2026-04-22 09:27 -27.38697 153.12027 20 ft 0 kts 307°
2026-04-22 09:27 -27.38704 153.12036 20 ft 2 kts 302°
2026-04-22 09:27 -27.38711 153.12051 20 ft 2 kts 293°
2026-04-22 09:28 -27.38716 153.12067 20 ft 2 kts 284°
2026-04-22 09:28 -27.38718 153.12080 20 ft 0 kts 278°
2026-04-22 09:28 -27.38718 153.12087 20 ft 0 kts 276°
2026-04-22 09:28 -27.38719 153.12089 20 ft 0 kts 276°
2026-04-22 09:29 -27.38719 153.12094 20 ft 0 kts 276°
2026-04-22 09:29 -27.38720 153.12099 20 ft 0 kts 276°
2026-04-22 09:29 -27.38720 153.12102 20 ft 0 kts 276°
2026-04-22 09:29 -27.38720 153.12103 20 ft 0 kts 276°
2026-04-22 09:32 -27.38723 153.12099 20 ft 1 kts 210°
2026-04-22 09:32 -27.38750 153.12115 20 ft 6 kts 125°
2026-04-22 09:33 -27.38767 153.12152 20 ft 3 kts 109°
2026-04-22 09:33 -27.38774 153.12175 20 ft 4 kts 106°
2026-04-22 09:33 -27.38780 153.12204 20 ft 3 kts 102°
2026-04-22 09:33 -27.38790 153.12242 20 ft 4 kts 109°
2026-04-22 09:34 -27.38789 153.12293 20 ft 7 kts 64°
2026-04-22 09:34 -27.38748 153.12331 20 ft 11 kts 27°
2026-04-22 09:34 -27.38661 153.12380 20 ft 13 kts 26°
2026-04-22 09:35 -27.38515 153.12460 20 ft 9 kts 26°
2026-04-22 09:35 -27.38445 153.12501 20 ft 15 kts 29°
2026-04-22 09:35 -27.38329 153.12570 20 ft 19 kts 27°
2026-04-22 09:35 -27.38217 153.12636 20 ft 16 kts 27°
2026-04-22 09:36 -27.38124 153.12689 20 ft 13 kts 27°
2026-04-22 09:36 -27.38038 153.12738 20 ft 16 kts 28°
2026-04-22 09:36 -27.37947 153.12793 20 ft 13 kts 27°
2026-04-22 09:36 -27.37844 153.12851 20 ft 16 kts 27°
2026-04-22 09:37 -27.37749 153.12904 20 ft 13 kts 27°
2026-04-22 09:37 -27.37673 153.12949 20 ft 10 kts 28°
2026-04-22 09:37 -27.37605 153.12988 20 ft 15 kts 27°
2026-04-22 09:37 -27.37499 153.13048 20 ft 18 kts 28°
2026-04-22 09:38 -27.37378 153.13117 20 ft 18 kts 27°
2026-04-22 09:38 -27.37297 153.13161 20 ft 8 kts 26°
2026-04-22 09:38 -27.37263 153.13199 20 ft 6 kts 83°
2026-04-22 09:38 -27.37284 153.13261 20 ft 9 kts 117°
2026-04-22 09:39 -27.37311 153.13321 20 ft 10 kts 117°
2026-04-22 09:39 -27.37349 153.13391 20 ft 9 kts 132°
2026-04-22 09:39 -27.37419 153.13431 20 ft 13 kts 171°
2026-04-22 09:39 -27.37529 153.13397 20 ft 22 kts 206°
2026-04-22 09:40 -27.37917 153.13176 21 ft 106 kts 208°
2026-04-22 09:40 -27.38812 153.12663 93 ft 174 kts 205°
2026-04-22 09:40 -27.39874 153.12053 1170 ft 170 kts 201°
2026-04-22 09:40 -27.40869 153.11511 2207 ft 162 kts 199°
2026-04-22 09:41 -27.41922 153.10922 2746 ft 179 kts 199°
2026-04-22 09:41 -27.43180 153.10669 3242 ft 193 kts 166°
2026-04-22 09:41 -27.44396 153.11381 3865 ft 207 kts 144°
2026-04-22 09:41 -27.45614 153.12335 4593 ft 220 kts 147°
2026-04-22 09:42 -27.46935 153.13235 5504 ft 226 kts 151°
2026-04-22 09:42 -27.48307 153.14096 6349 ft 232 kts 154°
2026-04-22 09:42 -27.49803 153.14743 7245 ft 233 kts 171°
2026-04-22 09:42 -27.51431 153.14691 7949 ft 242 kts 192°
2026-04-22 09:43 -27.53127 153.14212 8574 ft 257 kts 195°
2026-04-22 09:43 -27.54888 153.13696 9285 ft 267 kts 194°
2026-04-22 09:43 -27.56667 153.13083 10188 ft 269 kts 198°
2026-04-22 09:43 -27.58469 153.12389 10824 ft 281 kts 199°
2026-04-22 09:44 -27.60357 153.11641 11325 ft 298 kts 199°
2026-04-22 09:44 -27.62369 153.10858 11921 ft 311 kts 198°
2026-04-22 09:44 -27.64433 153.10136 12733 ft 316 kts 197°
2026-04-22 09:44 -27.66566 153.09435 13550 ft 322 kts 196°
2026-04-22 09:45 -27.68714 153.08737 14422 ft 325 kts 196°
2026-04-22 09:45 -27.70883 153.08028 15275 ft 328 kts 197°
2026-04-22 09:45 -27.73098 153.07295 16164 ft 330 kts 197°
2026-04-22 09:45 -27.75287 153.06567 17028 ft 332 kts 197°
2026-04-22 09:46 -27.77515 153.05823 17860 ft 335 kts 198°
2026-04-22 09:46 -27.79752 153.05072 18647 ft 338 kts 198°
2026-04-22 09:46 -27.82017 153.04306 19356 ft 342 kts 199°
2026-04-22 09:46 -27.84249 153.03441 20123 ft 344 kts 202°
2026-04-22 09:47 -27.86467 153.02477 20846 ft 347 kts 204°
2026-04-22 09:47 -27.88723 153.01456 21564 ft 349 kts 204°
2026-04-22 09:47 -27.90954 153.00446 22195 ft 353 kts 204°
2026-04-22 09:47 -27.93252 152.99411 22862 ft 356 kts 204°
2026-04-22 09:48 -27.95561 152.98379 23474 ft 360 kts 204°
2026-04-22 09:48 -27.97896 152.97343 24108 ft 362 kts 204°
2026-04-22 09:48 -28.00262 152.96300 24740 ft 365 kts 204°
2026-04-22 09:48 -28.02669 152.95241 25311 ft 368 kts 204°
2026-04-22 09:49 -28.05065 152.94185 25922 ft 370 kts 204°
2026-04-22 09:49 -28.07450 152.93137 26474 ft 373 kts 205°
2026-04-22 09:49 -28.09915 152.92052 27038 ft 375 kts 205°
2026-04-22 09:49 -28.12346 152.90974 27553 ft 378 kts 205°
2026-04-22 09:50 -28.14806 152.89880 28090 ft 381 kts 205°
2026-04-22 09:50 -28.17292 152.88774 28559 ft 384 kts 205°
2026-04-22 09:50 -28.19789 152.87662 29056 ft 387 kts 205°
2026-04-22 09:50 -28.22322 152.86534 29561 ft 389 kts 205°
2026-04-22 09:51 -28.24846 152.85410 30002 ft 392 kts 205°
2026-04-22 09:51 -28.27425 152.84262 30501 ft 394 kts 206°
2026-04-22 09:51 -28.29972 152.83125 30908 ft 397 kts 206°
2026-04-22 09:51 -28.32557 152.81972 31365 ft 399 kts 206°
2026-04-22 09:52 -28.35125 152.80827 31957 ft 397 kts 206°
2026-04-22 09:52 -28.37700 152.79683 32625 ft 393 kts 207°
2026-04-22 09:52 -28.40266 152.78540 33106 ft 393 kts 207°
2026-04-22 09:52 -28.42807 152.77406 33656 ft 391 kts 207°
2026-04-22 09:53 -28.45328 152.76280 34256 ft 388 kts 207°
2026-04-22 09:53 -28.47873 152.75140 34815 ft 386 kts 207°
2026-04-22 09:53 -28.50382 152.74017 35319 ft 385 kts 207°
2026-04-22 09:53 -28.52873 152.72903 35924 ft 382 kts 207°
2026-04-22 09:54 -28.55354 152.71793 36230 ft 383 kts 208°
2026-04-22 09:54 -28.57849 152.70670 36241 ft 386 kts 207°
2026-04-22 09:54 -28.62808 152.68445 36244 ft 382 kts 207°
2026-04-22 09:55 -28.67717 152.66237 36244 ft 382 kts 207°
2026-04-22 09:55 -28.72698 152.63997 36244 ft 382 kts 208°
2026-04-22 09:56 -28.77662 152.61765 36242 ft 382 kts 207°
2026-04-22 09:56 -28.82603 152.59543 36248 ft 382 kts 207°
2026-04-22 09:57 -28.87561 152.57310 36253 ft 382 kts 207°
2026-04-22 09:57 -28.92528 152.55075 36253 ft 381 kts 207°
2026-04-22 09:58 -28.97481 152.52835 36252 ft 382 kts 207°
2026-04-22 09:58 -29.02368 152.50627 36258 ft 382 kts 207°
2026-04-22 09:59 -29.07251 152.48421 36271 ft 381 kts 207°
2026-04-22 09:59 -29.12231 152.46167 36265 ft 381 kts 207°
2026-04-22 10:00 -29.17169 152.43932 36276 ft 380 kts 207°
2026-04-22 10:00 -29.22096 152.41698 36277 ft 380 kts 207°
2026-04-22 10:01 -29.27058 152.39444 36286 ft 382 kts 207°
2026-04-22 10:01 -29.32035 152.37186 36283 ft 381 kts 207°
2026-04-22 10:02 -29.36987 152.34933 36283 ft 382 kts 207°
2026-04-22 10:02 -29.41930 152.32681 36290 ft 381 kts 207°
2026-04-22 10:03 -29.46854 152.30437 36279 ft 380 kts 207°
2026-04-22 10:03 -29.51813 152.28175 36283 ft 381 kts 207°
2026-04-22 10:04 -29.56755 152.25923 36283 ft 380 kts 207°
2026-04-22 10:04 -29.61667 152.23679 36287 ft 379 kts 207°
2026-04-22 10:05 -29.66615 152.21416 36285 ft 381 kts 207°
2026-04-22 10:05 -29.71569 152.19150 36292 ft 381 kts 207°
2026-04-22 10:06 -29.76518 152.16884 36300 ft 380 kts 207°
2026-04-22 10:06 -29.81461 152.14619 36293 ft 381 kts 207°
2026-04-22 10:07 -29.86394 152.12354 36292 ft 380 kts 207°
2026-04-22 10:07 -29.91341 152.10080 36299 ft 380 kts 207°
2026-04-22 10:08 -29.96261 152.07817 36288 ft 380 kts 207°
2026-04-22 10:08 -30.01209 152.05536 36291 ft 380 kts 206°
2026-04-22 10:09 -30.06139 152.03264 36291 ft 379 kts 206°
2026-04-22 10:09 -30.11073 152.00987 36293 ft 378 kts 206°
2026-04-22 10:10 -30.15986 151.98715 36291 ft 380 kts 206°
2026-04-22 10:10 -30.20811 151.96480 36291 ft 378 kts 206°
2026-04-22 10:11 -30.25743 151.94197 36290 ft 380 kts 206°
2026-04-22 10:11 -30.30704 151.91898 36291 ft 378 kts 206°
2026-04-22 10:12 -30.35554 151.89647 36290 ft 378 kts 206°
2026-04-22 10:12 -30.40482 151.87357 36299 ft 379 kts 206°
2026-04-22 10:13 -30.45369 151.85083 36307 ft 377 kts 206°
2026-04-22 10:13 -30.50172 151.82849 36304 ft 378 kts 206°
2026-04-22 10:14 -30.55067 151.80566 36305 ft 379 kts 206°
2026-04-22 10:14 -30.59992 151.78267 36308 ft 380 kts 206°
2026-04-22 10:15 -30.64903 151.75974 36319 ft 378 kts 206°
2026-04-22 10:15 -30.69806 151.73680 36316 ft 379 kts 206°
2026-04-22 10:16 -30.74672 151.71400 36316 ft 379 kts 206°
2026-04-22 10:16 -30.79569 151.69106 36314 ft 379 kts 206°
2026-04-22 10:17 -30.84467 151.66809 36313 ft 378 kts 206°
2026-04-22 10:17 -30.89357 151.64511 36315 ft 379 kts 206°
2026-04-22 10:18 -30.94282 151.62190 36317 ft 378 kts 206°
2026-04-22 10:18 -30.99193 151.59878 36316 ft 379 kts 205°
2026-04-22 10:19 -31.04098 151.57568 36315 ft 379 kts 205°
2026-04-22 10:19 -31.08995 151.55260 36311 ft 378 kts 205°
2026-04-22 10:20 -31.13915 151.52936 36309 ft 379 kts 205°
2026-04-22 10:20 -31.18824 151.50612 36303 ft 378 kts 205°
2026-04-22 10:21 -31.23573 151.48363 36304 ft 379 kts 205°
2026-04-22 10:21 -31.28566 151.45998 36312 ft 381 kts 205°
2026-04-22 10:22 -31.33510 151.43655 36325 ft 380 kts 205°
2026-04-22 10:22 -31.38429 151.41319 36327 ft 382 kts 205°
2026-04-22 10:23 -31.43357 151.39064 36326 ft 381 kts 204°
2026-04-22 10:23 -31.48319 151.36867 36327 ft 382 kts 204°
2026-04-22 10:24 -31.53300 151.34657 36330 ft 382 kts 204°
2026-04-22 10:24 -31.58269 151.32442 36328 ft 381 kts 204°
2026-04-22 10:25 -31.63248 151.30214 36327 ft 379 kts 204°
2026-04-22 10:25 -31.68212 151.27992 36328 ft 381 kts 204°
2026-04-22 10:26 -31.73182 151.25763 36329 ft 381 kts 204°
2026-04-22 10:26 -31.78118 151.23546 36331 ft 380 kts 204°
2026-04-22 10:27 -31.83119 151.21295 36332 ft 381 kts 204°
2026-04-22 10:27 -31.88063 151.19070 36333 ft 381 kts 204°
2026-04-22 10:28 -31.93065 151.16812 36337 ft 381 kts 204°
2026-04-22 10:28 -31.97996 151.14592 36339 ft 381 kts 204°
2026-04-22 10:29 -32.02969 151.12367 36103 ft 375 kts 203°
2026-04-22 10:29 -32.05395 151.11282 35676 ft 369 kts 203°
2026-04-22 10:29 -32.07803 151.10204 35108 ft 366 kts 203°
2026-04-22 10:30 -32.10169 151.09143 34500 ft 365 kts 202°
2026-04-22 10:30 -32.12544 151.08075 33891 ft 363 kts 202°
2026-04-22 10:30 -32.14903 151.07013 33300 ft 363 kts 202°
2026-04-22 10:30 -32.17271 151.05949 32860 ft 358 kts 202°
2026-04-22 10:31 -32.19633 151.04884 32386 ft 355 kts 202°
2026-04-22 10:31 -32.21942 151.03845 31912 ft 352 kts 202°
2026-04-22 10:31 -32.24233 151.02812 31437 ft 349 kts 202°
2026-04-22 10:31 -32.26467 151.01805 30974 ft 346 kts 201°
2026-04-22 10:32 -32.28711 151.00794 30509 ft 343 kts 201°
2026-04-22 10:32 -32.30933 150.99793 30039 ft 340 kts 201°
2026-04-22 10:32 -32.33181 150.98778 29566 ft 347 kts 201°
2026-04-22 10:32 -32.35482 150.97739 29076 ft 360 kts 201°
2026-04-22 10:33 -32.37835 150.96674 28579 ft 360 kts 200°
2026-04-22 10:33 -32.40174 150.95615 28088 ft 356 kts 200°
2026-04-22 10:33 -32.42474 150.94575 27601 ft 352 kts 200°
2026-04-22 10:33 -32.44758 150.93539 27124 ft 348 kts 200°
2026-04-22 10:34 -32.47008 150.92537 26654 ft 344 kts 198°
2026-04-22 10:34 -32.49332 150.91792 26181 ft 339 kts 189°
2026-04-22 10:34 -32.51651 150.91615 25737 ft 334 kts 178°
2026-04-22 10:34 -32.53941 150.91861 25307 ft 330 kts 173°
2026-04-22 10:35 -32.56226 150.92247 24871 ft 326 kts 171°
2026-04-22 10:35 -32.58456 150.92664 24445 ft 322 kts 171°
2026-04-22 10:35 -32.60663 150.93082 24021 ft 318 kts 171°
2026-04-22 10:35 -32.62847 150.93489 23602 ft 314 kts 171°
2026-04-22 10:36 -32.64994 150.93883 23198 ft 310 kts 170°
2026-04-22 10:36 -32.67149 150.94272 22785 ft 307 kts 170°
2026-04-22 10:36 -32.69235 150.94646 22386 ft 304 kts 170°
2026-04-22 10:36 -32.71327 150.95020 21986 ft 304 kts 170°
2026-04-22 10:37 -32.73488 150.95406 21569 ft 320 kts 170°
2026-04-22 10:37 -32.77920 150.96193 20713 ft 317 kts 170°
2026-04-22 10:37 -32.80100 150.96578 20299 ft 314 kts 169°
2026-04-22 10:38 -32.82276 150.96962 19865 ft 310 kts 169°
2026-04-22 10:38 -32.84419 150.97343 19450 ft 307 kts 169°
2026-04-22 10:38 -32.86521 150.97717 19049 ft 303 kts 169°
2026-04-22 10:38 -32.88584 150.98086 18650 ft 300 kts 168°
2026-04-22 10:39 -32.90655 150.98459 18249 ft 297 kts 168°
2026-04-22 10:39 -32.92703 150.98827 17844 ft 294 kts 168°
2026-04-22 10:39 -32.94720 150.99188 17451 ft 291 kts 168°
2026-04-22 10:39 -32.96739 150.99548 17058 ft 288 kts 168°
2026-04-22 10:40 -32.98706 150.99899 16671 ft 287 kts 168°
2026-04-22 10:40 -33.00737 151.00266 16281 ft 303 kts 168°
2026-04-22 10:40 -33.02842 151.00644 15876 ft 304 kts 168°
2026-04-22 10:40 -33.04938 151.01018 15461 ft 300 kts 168°
2026-04-22 10:41 -33.06986 151.01381 15048 ft 297 kts 168°
2026-04-22 10:41 -33.09023 151.01744 14664 ft 294 kts 168°
2026-04-22 10:41 -33.11038 151.02104 14259 ft 291 kts 168°
2026-04-22 10:41 -33.13030 151.02461 13875 ft 288 kts 168°
2026-04-22 10:42 -33.15014 151.02817 13466 ft 285 kts 168°
2026-04-22 10:42 -33.17000 151.03172 13091 ft 283 kts 168°
2026-04-22 10:42 -33.18925 151.03519 12709 ft 280 kts 168°
2026-04-22 10:42 -33.20855 151.03865 12332 ft 277 kts 168°
2026-04-22 10:43 -33.22758 151.04207 11961 ft 275 kts 168°
2026-04-22 10:43 -33.24663 151.04555 11581 ft 273 kts 168°
2026-04-22 10:43 -33.26526 151.04907 11215 ft 270 kts 168°
2026-04-22 10:43 -33.28370 151.05264 10817 ft 270 kts 167°
2026-04-22 10:44 -33.30269 151.05633 10122 ft 279 kts 168°
2026-04-22 10:44 -33.32185 151.06004 9717 ft 272 kts 168°
2026-04-22 10:44 -33.34012 151.06352 9636 ft 258 kts 168°
2026-04-22 10:44 -33.35762 151.06686 9403 ft 252 kts 168°
2026-04-22 10:45 -33.37481 151.07018 9093 ft 249 kts 168°
2026-04-22 10:45 -33.39203 151.07349 8646 ft 252 kts 168°
2026-04-22 10:45 -33.40980 151.07693 8108 ft 258 kts 168°
2026-04-22 10:45 -33.42750 151.08034 7757 ft 256 kts 168°
2026-04-22 10:46 -33.44505 151.08369 7379 ft 255 kts 168°
2026-04-22 10:46 -33.46249 151.08704 6997 ft 254 kts 169°
2026-04-22 10:46 -33.48001 151.09042 6640 ft 252 kts 169°
2026-04-22 10:46 -33.49732 151.09375 6240 ft 252 kts 169°
2026-04-22 10:47 -33.51469 151.09711 5986 ft 248 kts 169°
2026-04-22 10:47 -33.53186 151.10040 5978 ft 245 kts 169°
2026-04-22 10:47 -33.54794 151.10347 5973 ft 227 kts 169°
2026-04-22 10:47 -33.56350 151.10648 5970 ft 227 kts 169°
2026-04-22 10:48 -33.57927 151.10953 5969 ft 227 kts 169°
2026-04-22 10:48 -33.59475 151.11203 5945 ft 230 kts 173°
2026-04-22 10:48 -33.61113 151.11328 5632 ft 232 kts 175°
2026-04-22 10:48 -33.62739 151.11424 5148 ft 236 kts 175°
2026-04-22 10:49 -33.64370 151.11537 4759 ft 232 kts 174°
2026-04-22 10:49 -33.65957 151.11661 4354 ft 228 kts 174°
2026-04-22 10:49 -33.67525 151.11791 3930 ft 224 kts 174°
2026-04-22 10:49 -33.69082 151.11923 3498 ft 221 kts 174°
2026-04-22 10:50 -33.70598 151.12053 3094 ft 217 kts 174°
2026-04-22 10:50 -33.72079 151.12181 2959 ft 201 kts 174°
2026-04-22 10:50 -33.73394 151.12299 2968 ft 182 kts 172°
2026-04-22 10:50 -33.74614 151.12501 2986 ft 174 kts 168°
2026-04-22 10:51 -33.75816 151.12776 2987 ft 173 kts 166°
2026-04-22 10:51 -33.76999 151.13066 2984 ft 173 kts 166°
2026-04-22 10:51 -33.78181 151.13362 2971 ft 175 kts 166°
2026-04-22 10:51 -33.79392 151.13669 2776 ft 176 kts 166°
2026-04-22 10:52 -33.80576 151.13972 2523 ft 173 kts 166°
2026-04-22 10:52 -33.81750 151.14272 2290 ft 172 kts 166°
2026-04-22 10:52 -33.82907 151.14565 2077 ft 162 kts 167°
2026-04-22 10:52 -33.83969 151.14836 1829 ft 150 kts 166°
2026-04-22 10:53 -33.84932 151.15085 1651 ft 132 kts 166°
2026-04-22 10:53 -33.85792 151.15306 1451 ft 122 kts 166°
2026-04-22 10:53 -33.86634 151.15520 1309 ft 123 kts 166°
2026-04-22 10:53 -33.87469 151.15735 1149 ft 122 kts 166°
2026-04-22 10:54 -33.88300 151.15953 971 ft 121 kts 166°
2026-04-22 10:54 -33.89124 151.16168 826 ft 120 kts 166°
2026-04-22 10:54 -33.89952 151.16391 683 ft 122 kts 166°
2026-04-22 10:54 -33.90795 151.16614 487 ft 125 kts 167°
2026-04-22 10:55 -33.91638 151.16829 354 ft 121 kts 167°
2026-04-22 10:55 -33.92463 151.17044 173 ft 121 kts 167°
2026-04-22 10:55 -33.93297 151.17252 35 ft 120 kts 166°
2026-04-22 10:55 -33.93916 151.17413 12 ft 53 kts 167°
2026-04-22 10:56 -33.94077 151.17454 14 ft 0 kts 168°
2026-04-22 10:56 -33.94080 151.17456 14 ft 2 kts 168°
2026-04-22 10:56 -33.94176 151.17482 15 ft 22 kts 166°
2026-04-22 10:56 -33.94305 151.17535 19 ft 16 kts 154°
2026-04-22 10:57 -33.94413 151.17612 22 ft 18 kts 144°
2026-04-22 10:57 -33.94486 151.17679 24 ft 4 kts 138°
2026-04-22 10:57 -33.94488 151.17685 24 ft 0 kts 116°
2026-04-22 10:58 -33.94490 151.17688 24 ft 4 kts 119°
2026-04-22 10:58 -33.94500 151.17778 24 ft 11 kts 28°
2026-04-22 10:58 -33.94420 151.17764 21 ft 11 kts 345°
2026-04-22 10:58 -33.94344 151.17740 19 ft 10 kts 345°
2026-04-22 10:59 -33.94274 151.17719 18 ft 10 kts 347°
2026-04-22 10:59 -33.94190 151.17694 16 ft 16 kts 345°
2026-04-22 10:59 -33.94077 151.17659 11 ft 16 kts 346°
2026-04-22 10:59 -33.93966 151.17629 8 ft 15 kts 347°
2026-04-22 11:00 -33.93880 151.17631 8 ft 10 kts 38°
2026-04-22 11:00 -33.93857 151.17696 9 ft 6 kts 76°
2026-04-22 11:00 -33.93847 151.17744 8 ft 4 kts 73°
2026-04-22 11:00 -33.93812 151.17776 8 ft 9 kts 14°
2026-04-22 11:01 -33.93758 151.17789 9 ft 6 kts 10°
2026-04-22 11:01 -33.93709 151.17798 10 ft 8 kts
2026-04-22 11:01 -33.93649 151.17810 11 ft 7 kts 10°
2026-04-22 11:01 -33.93607 151.17819 12 ft 6 kts 10°
2026-04-22 11:02 -33.93541 151.17833 14 ft 9 kts 10°
2026-04-22 11:02 -33.93512 151.17853 15 ft 2 kts 79°
2026-04-22 11:02 -33.93516 151.17873 16 ft 5 kts 105°
2026-04-22 11:02 -33.93520 151.17896 17 ft 2 kts 101°
2026-04-22 11:03 -33.93523 151.17917 17 ft 1 kts 99°
2026-04-22 11:03 -33.93524 151.17918 17 ft 0 kts 99°